Weather History for HEGN - March, 2014

Change the Weather History Date:

Friday, March 14, 2014

  Actual Average Record
Temperature  
Mean Temperature 62 °F -  
Max Temperature 69 °F 78 °F 94 °F (2013)
Min Temperature 55 °F 61 °F 53 °F (2003)
Degree Days  
Heating Degree Days 3    
Growing Degree Days 12 (Base 50)    
Moisture  
Dew Point 40 °F    
Average Humidity 40    
Maximum Humidity 63    
Minimum Humidity 19    
Precipitation  
Precipitation 0.00 in - - ()
Sea Level Pressure  
Sea Level Pressure 30.05 in    
Wind  
Wind Speed 14 mph ()    
Max Wind Speed 24 mph    
Max Gust Speed -    
Visibility 6.0 miles    
Events      
Averages and records for this station are not official NWS values.
T = Trace of Precipitation, MM = Missing Value Source: Averaged Metar Reports

Daily Weather History Graph

Daily Weather History Graph

Search for Another Location

Airport or City:

Trip Planner

Search our weather history database for the weather conditions in past years. The results will help you decide how hot, cold, wet, or windy it might be!

Date:

Astronomy

Mar. 14, 2014 Rise Set
Actual Time 5:55 AM EET 5:52 PM EET
Civil Twilight 5:32 AM EET 6:16 PM EET
Nautical Twilight 5:05 AM EET 6:43 PM EET
Astronomical Twilight 4:38 AM EET 7:10 PM EET
Moon 4:02 PM EET (3/14) 4:15 AM EET (3/14)
Length of Visible Light 12h 43m
Length of Day
11h 57m
Waxing Gibbous, 95% of the Moon is Illuminated
Mar 14
Waxing Gibbous
Mar 16
Full
Mar 24
Last Quarter
Mar 30
New
Apr 7
First Quarter

Hourly Weather History & Observations

Time (EET) Temp. Dew Point Humidity Pressure Visibility Wind Dir Wind Speed Gust Speed Precip Events Conditions
12:00 AM 60.8 °F 41.0 °F 48% 30.04 in - WNW 9.2 mph - N/A   Clear
1:00 AM 59.0 °F 39.2 °F 48% 30.04 in - NW 11.5 mph - N/A   Clear
2:00 AM 60 °F 42 °F 39% 30.03 in 6 mi WNW 13.8 mph - -  
2:00 AM 60.8 °F 41.0 °F 48% 30.01 in - WNW 13.8 mph - N/A   Clear
3:00 AM 59.0 °F 41.0 °F 51% 30.01 in - WNW 11.5 mph - N/A   Clear
4:00 AM 59.0 °F 41.0 °F 51% 30.01 in - NW 11.5 mph - N/A   Clear
5:00 AM 59 °F 39 °F 36% 30.04 in 6 mi WNW 11.5 mph - -  
5:00 AM 59.0 °F 39.2 °F 48% 30.04 in - WNW 11.5 mph - N/A   Clear
6:00 AM 57.2 °F 39.2 °F 51% 30.04 in 6.2 mi NW 17.3 mph - N/A   Partly Cloudy
7:00 AM 59.0 °F 39.2 °F 48% 30.04 in - WNW 17.3 mph - N/A   Clear
8:00 AM 60 °F 42 °F 41% 30.08 in 6 mi WNW 23.0 mph - -  
8:00 AM 55.4 °F 42.8 °F 63% 30.06 in - WNW 23.0 mph - N/A   Clear
9:00 AM 62.6 °F 39.2 °F 42% 30.06 in - WNW 20.7 mph - N/A   Clear
10:00 AM 66.2 °F 35.6 °F 32% 30.06 in - NW 23.0 mph - N/A   Clear
11:00 AM 66 °F 33 °F 19% 30.09 in 6 mi NW 20.7 mph - -  
11:00 AM 66.2 °F 33.8 °F 30% 30.09 in - NW 20.7 mph - N/A   Clear
12:00 PM 68.0 °F 37.4 °F 33% 30.06 in - North 21.9 mph - N/A   Clear
1:00 PM 68.0 °F 39.2 °F 35% 30.04 in - North 19.6 mph - N/A   Clear
2:00 PM 69 °F 40 °F 23% 30.03 in 6 mi North 23.0 mph - -  
2:00 PM 69.8 °F 39.2 °F 33% 30.01 in - North 23.0 mph - N/A   Clear
3:00 PM 68.0 °F 39.2 °F 35% 30.01 in - North 20.7 mph - N/A   Clear
4:00 PM 69.8 °F 39.2 °F 33% 30.01 in - North 24.2 mph - N/A   Clear
5:00 PM 69 °F 43 °F 28% 30.02 in 6 mi North 24.2 mph - -  
5:00 PM 69.8 °F 42.8 °F 38% 30.01 in - North 24.2 mph - N/A   Clear
6:00 PM 66.2 °F 44.6 °F 46% 30.04 in - North 20.7 mph - N/A   Clear
7:00 PM 66.2 °F 41.0 °F 40% 30.06 in - NNW 13.8 mph - N/A   Clear
8:00 PM 64 °F 39 °F 28% 30.08 in 6 mi NW 11.5 mph - -  
8:00 PM 64.4 °F 39.2 °F 40% 30.06 in - NW 11.5 mph - N/A   Clear
9:00 PM 62.6 °F 41.0 °F 45% 30.09 in - WNW 6.9 mph - N/A   Clear
10:00 PM 62.6 °F 41.0 °F 45% 30.09 in - NW 13.8 mph - N/A   Clear
11:00 PM 62 °F 43 °F 39% 30.11 in 6 mi NW 13.8 mph - -  
11:00 PM 60.8 °F 42.8 °F 52% 30.09 in - NW 13.8 mph - N/A   Clear